Time,TemperatureF,DewpointF,PressureIn,WindDirection,WindDirectionDegrees,WindSpeedMPH,WindSpeedGustMPH,Humidity,HourlyPrecipIn,Conditions,Clouds,dailyrainin,SoftwareType,DateUTC
2013-10-13 00:01:00,76.6,67.6,30.02,East,97,0.0,1.0,74,0.00,,,0.00,meteohub,2013-10-13 04:01:00,
2013-10-13 00:02:00,76.5,67.6,30.02,East,97,0.0,1.0,74,0.00,,,0.00,meteohub,2013-10-13 04:02:00,
2013-10-13 00:07:00,76.3,67.8,30.02,East,97,0.0,0.0,75,0.00,,,0.00,meteohub,2013-10-13 04:07:00,
2013-10-13 00:12:00,76.1,67.6,30.02,East,97,0.0,0.0,75,0.00,,,0.00,meteohub,2013-10-13 04:12:00,
2013-10-13 00:17:00,75.9,67.8,30.02,East,97,0.0,0.0,76,0.00,,,0.00,meteohub,2013-10-13 04:17:00,
2013-10-13 00:22:00,75.7,67.6,30.02,East,97,0.0,0.0,76,0.00,,,0.00,meteohub,2013-10-13 04:22:00,
2013-10-13 00:27:00,75.6,67.5,30.01,East,97,0.0,0.0,76,0.00,,,0.00,meteohub,2013-10-13 04:27:00,
2013-10-13 00:32:00,75.4,67.3,30.01,East,97,0.0,0.0,76,0.00,,,0.00,meteohub,2013-10-13 04:32:00,
2013-10-13 00:37:00,75.4,67.3,30.01,East,97,0.0,0.0,76,0.00,,,0.00,meteohub,2013-10-13 04:37:00,
2013-10-13 00:42:00,75.6,67.8,30.01,East,97,0.0,0.0,77,0.00,,,0.00,meteohub,2013-10-13 04:42:00,
2013-10-13 00:47:00,75.7,67.6,30.01,East,97,0.0,0.0,76,0.00,,,0.00,meteohub,2013-10-13 04:47:00,
2013-10-13 00:52:00,75.7,67.3,30.01,East,97,0.0,0.0,75,0.00,,,0.00,meteohub,2013-10-13 04:52:00,
2013-10-13 00:57:00,75.7,67.3,30.01,East,97,0.0,0.0,75,0.00,,,0.00,meteohub,2013-10-13 04:57:00,
2013-10-13 01:02:00,75.7,68.0,30.01,East,97,0.0,0.0,77,0.00,,,0.00,meteohub,2013-10-13 05:02:00,
2013-10-13 01:07:00,75.6,67.5,30.00,ESE,111,0.0,0.0,76,0.00,,,0.00,meteohub,2013-10-13 05:07:00,
2013-10-13 01:12:00,75.6,67.5,30.01,ESE,111,0.0,0.0,76,0.00,,,0.00,meteohub,2013-10-13 05:12:00,
2013-10-13 01:17:00,75.6,67.5,30.00,ESE,111,0.0,0.0,76,0.00,,,0.00,meteohub,2013-10-13 05:17:00,
2013-10-13 01:22:00,75.6,67.8,30.00,ESE,111,0.0,0.0,77,0.00,,,0.00,meteohub,2013-10-13 05:22:00,
2013-10-13 01:27:00,75.4,67.6,30.00,ESE,111,0.0,0.0,77,0.00,,,0.00,meteohub,2013-10-13 05:27:00,
2013-10-13 01:32:00,75.2,67.5,30.00,ESE,111,0.0,0.0,77,0.00,,,0.00,meteohub,2013-10-13 05:32:00,
2013-10-13 01:37:00,75.0,67.6,30.00,ESE,111,0.0,0.0,78,0.00,,,0.00,meteohub,2013-10-13 05:37:00,
2013-10-13 01:42:00,74.8,67.5,30.00,ESE,111,0.0,0.0,78,0.00,,,0.00,meteohub,2013-10-13 05:42:00,
2013-10-13 01:47:00,74.7,67.3,30.00,ESE,111,0.0,0.0,78,0.00,,,0.00,meteohub,2013-10-13 05:47:00,
2013-10-13 01:52:00,74.7,68.0,30.00,ESE,111,0.0,0.0,80,0.00,,,0.00,meteohub,2013-10-13 05:52:00,
2013-10-13 01:57:00,74.5,68.2,30.00,ESE,111,0.0,0.0,81,0.00,,,0.00,meteohub,2013-10-13 05:57:00,
2013-10-13 02:01:00,74.1,68.0,30.00,ESE,111,0.0,0.0,81,0.00,,,0.00,meteohub,2013-10-13 06:01:00,
2013-10-13 02:07:00,73.9,67.8,29.99,ESE,111,0.0,0.0,81,0.00,,,0.00,meteohub,2013-10-13 06:07:00,
2013-10-13 02:12:00,73.8,68.0,29.99,ESE,111,0.0,0.0,82,0.00,,,0.00,meteohub,2013-10-13 06:12:00,
2013-10-13 02:17:00,73.6,67.8,29.99,ESE,111,0.0,0.0,82,0.00,,,0.00,meteohub,2013-10-13 06:17:00,
2013-10-13 02:22:00,73.2,67.5,29.99,ESE,111,0.0,0.0,82,0.00,,,0.00,meteohub,2013-10-13 06:22:00,
2013-10-13 02:27:00,73.2,67.8,29.99,ESE,111,0.0,0.0,83,0.00,,,0.00,meteohub,2013-10-13 06:27:00,
2013-10-13 02:32:00,73.0,67.6,29.98,ESE,111,0.0,0.0,83,0.00,,,0.00,meteohub,2013-10-13 06:32:00,
2013-10-13 02:37:00,73.0,68.0,29.98,ESE,111,0.0,0.0,84,0.00,,,0.00,meteohub,2013-10-13 06:37:00,
2013-10-13 02:42:00,73.0,68.0,29.98,ESE,111,0.0,0.0,84,0.00,,,0.00,meteohub,2013-10-13 06:42:00,
2013-10-13 02:47:00,73.0,68.2,29.98,ESE,111,0.0,0.0,85,0.00,,,0.00,meteohub,2013-10-13 06:47:00,
2013-10-13 02:52:00,73.0,68.5,29.98,ESE,111,0.0,0.0,86,0.00,,,0.00,meteohub,2013-10-13 06:52:00,
2013-10-13 02:57:00,73.2,68.7,29.98,ESE,111,0.0,0.0,86,0.00,,,0.00,meteohub,2013-10-13 06:57:00,
2013-10-13 03:02:00,73.4,68.9,29.98,ESE,111,0.0,0.0,86,0.00,,,0.00,meteohub,2013-10-13 07:02:00,
2013-10-13 03:07:00,73.6,69.1,29.97,ESE,111,0.0,0.0,86,0.00,,,0.00,meteohub,2013-10-13 07:07:00,
2013-10-13 03:12:00,73.6,69.4,29.97,ESE,111,0.0,0.0,87,0.00,,,0.00,meteohub,2013-10-13 07:12:00,
2013-10-13 03:17:00,73.6,69.4,29.97,ESE,111,0.0,0.0,87,0.00,,,0.00,meteohub,2013-10-13 07:17:00,
2013-10-13 03:22:00,73.6,69.4,29.97,ESE,111,0.0,0.0,87,0.00,,,0.00,meteohub,2013-10-13 07:22:00,
2013-10-13 03:27:00,73.6,69.4,29.97,ESE,111,0.0,0.0,87,0.00,,,0.00,meteohub,2013-10-13 07:27:00,
2013-10-13 03:32:00,73.8,69.6,29.97,ESE,111,0.0,0.0,87,0.00,,,0.00,meteohub,2013-10-13 07:32:00,
2013-10-13 03:37:00,73.9,69.4,29.97,ESE,111,0.0,0.0,86,0.00,,,0.00,meteohub,2013-10-13 07:37:00,
2013-10-13 03:42:00,73.9,69.4,29.97,ESE,111,0.0,0.0,86,0.00,,,0.00,meteohub,2013-10-13 07:42:00,
2013-10-13 03:47:00,73.9,69.4,29.97,ESE,111,0.0,0.0,86,0.00,,,0.00,meteohub,2013-10-13 07:47:00,
2013-10-13 03:52:00,73.9,69.4,29.97,ESE,111,0.0,0.0,86,0.00,,,0.00,meteohub,2013-10-13 07:52:00,
2013-10-13 03:57:00,73.9,69.4,29.98,ESE,111,0.0,0.0,86,0.00,,,0.00,meteohub,2013-10-13 07:57:00,
2013-10-13 04:02:00,73.9,69.4,29.98,ESE,111,0.0,0.0,86,0.00,,,0.00,meteohub,2013-10-13 08:02:00,
2013-10-13 04:07:00,73.8,69.3,29.98,ESE,111,0.0,0.0,86,0.00,,,0.00,meteohub,2013-10-13 08:07:00,
2013-10-13 04:12:00,73.8,69.3,29.98,ESE,111,0.0,0.0,86,0.00,,,0.00,meteohub,2013-10-13 08:12:00,
2013-10-13 04:17:00,73.6,69.4,29.98,ESE,111,0.0,0.0,87,0.00,,,0.00,meteohub,2013-10-13 08:17:00,
2013-10-13 04:22:00,73.6,69.4,29.98,ESE,111,0.0,0.0,87,0.00,,,0.00,meteohub,2013-10-13 08:22:00,
2013-10-13 04:27:00,73.2,69.4,29.98,ESE,111,0.0,0.0,88,0.00,,,0.00,meteohub,2013-10-13 08:27:00,
2013-10-13 04:32:00,73.0,69.3,29.98,ESE,111,0.0,0.0,88,0.00,,,0.00,meteohub,2013-10-13 08:32:00,
2013-10-13 04:37:00,72.9,69.1,29.98,ESE,111,0.0,0.0,88,0.00,,,0.00,meteohub,2013-10-13 08:37:00,
2013-10-13 04:42:00,72.9,69.1,29.98,ESE,111,0.0,0.0,88,0.00,,,0.00,meteohub,2013-10-13 08:42:00,
2013-10-13 04:47:00,72.7,68.9,29.98,ESE,111,0.0,0.0,88,0.00,,,0.00,meteohub,2013-10-13 08:47:00,
2013-10-13 04:52:00,72.3,68.5,29.98,ESE,111,0.0,0.0,88,0.00,,,0.00,meteohub,2013-10-13 08:52:00,
2013-10-13 04:57:00,72.3,68.9,29.98,ESE,111,0.0,0.0,89,0.00,,,0.00,meteohub,2013-10-13 08:57:00,
2013-10-13 05:02:00,72.1,68.7,29.98,ESE,111,0.0,0.0,89,0.00,,,0.00,meteohub,2013-10-13 09:02:00,
2013-10-13 05:07:00,72.0,68.5,29.98,ESE,111,0.0,0.0,89,0.00,,,0.00,meteohub,2013-10-13 09:07:00,
2013-10-13 05:12:00,72.0,68.9,29.98,ESE,111,0.0,0.0,90,0.00,,,0.00,meteohub,2013-10-13 09:12:00,
2013-10-13 05:17:00,72.0,68.9,29.98,ESE,111,0.0,0.0,90,0.00,,,0.00,meteohub,2013-10-13 09:17:00,
2013-10-13 05:22:00,72.0,69.3,29.98,ESE,111,0.0,0.0,91,0.00,,,0.00,meteohub,2013-10-13 09:22:00,
2013-10-13 05:27:00,71.8,69.1,29.98,ESE,111,0.0,0.0,91,0.00,,,0.00,meteohub,2013-10-13 09:27:00,
2013-10-13 05:32:00,71.8,69.1,29.98,ESE,111,0.0,0.0,91,0.00,,,0.00,meteohub,2013-10-13 09:32:00,
2013-10-13 05:37:00,71.4,68.7,29.98,ESE,111,0.0,0.0,91,0.00,,,0.00,meteohub,2013-10-13 09:37:00,
2013-10-13 05:42:00,71.2,68.5,29.99,ESE,111,0.0,0.0,91,0.00,,,0.00,meteohub,2013-10-13 09:42:00,
2013-10-13 05:47:00,71.1,68.4,29.99,ESE,111,0.0,0.0,91,0.00,,,0.00,meteohub,2013-10-13 09:47:00,
2013-10-13 05:52:00,70.9,68.4,29.99,ESE,111,0.0,0.0,92,0.00,,,0.00,meteohub,2013-10-13 09:52:00,
2013-10-13 05:57:00,70.7,68.2,29.99,ESE,111,0.0,0.0,92,0.00,,,0.00,meteohub,2013-10-13 09:57:00,
2013-10-13 06:02:00,70.5,68.0,29.99,ESE,111,0.0,0.0,92,0.00,,,0.00,meteohub,2013-10-13 10:02:00,
2013-10-13 06:07:00,70.3,67.8,29.99,ESE,111,0.0,0.0,92,0.00,,,0.00,meteohub,2013-10-13 10:07:00,
2013-10-13 06:12:00,70.3,68.2,29.99,ESE,111,0.0,0.0,93,0.00,,,0.00,meteohub,2013-10-13 10:12:00,
2013-10-13 06:17:00,70.3,68.2,29.99,ESE,111,0.0,0.0,93,0.00,,,0.00,meteohub,2013-10-13 10:17:00,
2013-10-13 06:22:00,70.3,68.5,29.99,ESE,111,0.0,0.0,94,0.00,,,0.00,meteohub,2013-10-13 10:22:00,
2013-10-13 06:27:00,70.3,68.5,29.99,ESE,111,0.0,0.0,94,0.00,,,0.00,meteohub,2013-10-13 10:27:00,
2013-10-13 06:32:00,70.3,68.5,29.99,ESE,111,0.0,0.0,94,0.00,,,0.00,meteohub,2013-10-13 10:32:00,
2013-10-13 06:37:00,70.3,68.5,30.00,ESE,111,0.0,0.0,94,0.00,,,0.00,meteohub,2013-10-13 10:37:00,
2013-10-13 06:42:00,70.3,68.5,30.00,ESE,111,0.0,0.0,94,0.00,,,0.00,meteohub,2013-10-13 10:42:00,
2013-10-13 06:46:00,70.3,68.5,30.00,ESE,111,0.0,0.0,94,0.00,,,0.00,meteohub,2013-10-13 10:46:00,
2013-10-13 06:51:00,70.3,68.5,30.00,ESE,111,0.0,0.0,94,0.00,,,0.00,meteohub,2013-10-13 10:51:00,
2013-10-13 06:56:00,70.3,68.5,30.00,ESE,111,0.0,0.0,94,0.00,,,0.00,meteohub,2013-10-13 10:56:00,
2013-10-13 07:02:00,70.3,68.5,30.00,ESE,111,0.0,0.0,94,0.00,,,0.00,meteohub,2013-10-13 11:02:00,
2013-10-13 07:07:00,70.3,68.5,30.00,ESE,111,0.0,0.0,94,0.00,,,0.00,meteohub,2013-10-13 11:07:00,
2013-10-13 07:12:00,70.2,68.4,30.00,ESE,111,0.0,0.0,94,0.00,,,0.00,meteohub,2013-10-13 11:12:00,
2013-10-13 07:17:00,70.2,68.4,30.00,ESE,111,0.0,0.0,94,0.00,,,0.00,meteohub,2013-10-13 11:17:00,
2013-10-13 07:22:00,70.0,68.2,30.00,ESE,111,0.0,0.0,94,0.00,,,0.00,meteohub,2013-10-13 11:22:00,
2013-10-13 07:27:00,70.2,68.7,30.00,ESE,111,0.0,0.0,95,0.00,,,0.00,meteohub,2013-10-13 11:27:00,
2013-10-13 07:32:00,70.2,68.7,30.00,ESE,111,0.0,0.0,95,0.00,,,0.00,meteohub,2013-10-13 11:32:00,
2013-10-13 07:37:00,70.2,68.7,30.00,ESE,111,0.0,0.0,95,0.00,,,0.00,meteohub,2013-10-13 11:37:00,
2013-10-13 07:42:00,70.3,68.9,30.00,ESE,111,0.0,0.0,95,0.00,,,0.00,meteohub,2013-10-13 11:42:00,
2013-10-13 07:47:00,70.3,68.9,30.00,ESE,111,0.0,0.0,95,0.00,,,0.00,meteohub,2013-10-13 11:47:00,
2013-10-13 07:52:00,70.3,68.9,30.01,ESE,111,0.0,0.0,95,0.00,,,0.00,meteohub,2013-10-13 11:52:00,
2013-10-13 07:57:00,70.5,69.1,30.01,ESE,111,0.0,0.0,95,0.00,,,0.00,meteohub,2013-10-13 11:57:00,
2013-10-13 08:02:00,70.9,69.4,30.01,ESE,111,0.0,0.0,95,0.00,,,0.00,meteohub,2013-10-13 12:02:00,
2013-10-13 08:07:00,70.9,69.4,30.01,ESE,111,0.0,0.0,95,0.00,,,0.00,meteohub,2013-10-13 12:07:00,
2013-10-13 08:12:00,71.1,69.6,30.01,ESE,111,0.0,0.0,95,0.00,,,0.00,meteohub,2013-10-13 12:12:00,
2013-10-13 08:17:00,71.2,69.8,30.01,ESE,111,0.0,0.0,95,0.00,,,0.00,meteohub,2013-10-13 12:17:00,
2013-10-13 08:22:00,71.4,70.0,30.01,ESE,111,0.0,0.0,95,0.00,,,0.00,meteohub,2013-10-13 12:22:00,
2013-10-13 08:27:00,71.6,70.2,30.02,ESE,111,0.0,0.0,95,0.00,,,0.00,meteohub,2013-10-13 12:27:00,
2013-10-13 08:32:00,71.8,70.0,30.02,ESE,111,0.0,0.0,94,0.00,,,0.00,meteohub,2013-10-13 12:32:00,
2013-10-13 08:37:00,72.0,70.2,30.02,ESE,111,0.0,0.0,94,0.00,,,0.00,meteohub,2013-10-13 12:37:00,
2013-10-13 08:42:00,72.1,70.3,30.02,ESE,111,0.0,0.0,94,0.00,,,0.00,meteohub,2013-10-13 12:42:00,
2013-10-13 08:47:00,72.3,70.2,30.02,ESE,111,0.0,0.0,93,0.00,,,0.00,meteohub,2013-10-13 12:47:00,
2013-10-13 08:52:00,72.7,70.2,30.03,ESE,111,0.0,0.0,92,0.00,,,0.00,meteohub,2013-10-13 12:52:00,
2013-10-13 08:56:00,73.0,70.5,30.03,ESE,111,0.0,0.0,92,0.00,,,0.00,meteohub,2013-10-13 12:56:00,
2013-10-13 09:01:00,73.4,70.5,30.03,ESE,111,0.0,0.0,91,0.00,,,0.00,meteohub,2013-10-13 13:01:00,
2013-10-13 09:06:00,73.8,70.7,30.03,ESE,111,0.0,0.0,90,0.00,,,0.00,meteohub,2013-10-13 13:06:00,
2013-10-13 09:11:00,74.1,71.1,30.03,ESE,111,0.0,0.0,90,0.00,,,0.00,meteohub,2013-10-13 13:11:00,
2013-10-13 09:16:00,74.8,71.4,30.04,ESE,111,0.0,0.0,89,0.00,,,0.00,meteohub,2013-10-13 13:16:00,
2013-10-13 09:21:00,75.6,71.4,30.04,ESE,111,0.0,0.0,87,0.00,,,0.00,meteohub,2013-10-13 13:21:00,
2013-10-13 09:26:00,76.3,71.4,30.04,ESE,109,0.0,0.0,85,0.00,,,0.00,meteohub,2013-10-13 13:26:00,
2013-10-13 09:31:00,76.8,71.2,30.04,ESE,103,0.0,1.0,83,0.00,,,0.00,meteohub,2013-10-13 13:31:00,
2013-10-13 09:36:00,77.4,71.4,30.04,NNE,12,0.0,2.0,82,0.00,,,0.00,meteohub,2013-10-13 13:36:00,
2013-10-13 09:41:00,77.5,72.0,30.04,NNE,23,0.0,2.0,83,0.00,,,0.00,meteohub,2013-10-13 13:41:00,
2013-10-13 09:46:00,77.7,72.5,30.04,NNE,23,0.0,2.0,84,0.00,,,0.00,meteohub,2013-10-13 13:46:00,
2013-10-13 09:51:00,77.5,72.3,30.04,NNE,23,0.0,2.0,84,0.01,,,0.01,meteohub,2013-10-13 13:51:00,
2013-10-13 09:56:00,77.4,73.2,30.05,NNE,23,0.0,1.0,87,0.01,,,0.01,meteohub,2013-10-13 13:56:00,
2013-10-13 10:01:00,77.0,72.9,30.04,NNE,23,0.0,1.0,87,0.01,,,0.01,meteohub,2013-10-13 14:01:00,
2013-10-13 10:06:00,76.6,71.8,30.05,NNE,23,0.0,1.0,85,0.01,,,0.01,meteohub,2013-10-13 14:06:00,
2013-10-13 10:11:00,76.6,72.1,30.05,NNE,23,0.0,1.0,86,0.01,,,0.01,meteohub,2013-10-13 14:11:00,
2013-10-13 10:17:00,76.6,72.5,30.05,NNE,23,0.0,0.0,87,0.01,,,0.01,meteohub,2013-10-13 14:17:00,
2013-10-13 10:22:00,76.6,72.5,30.05,NNE,23,0.0,0.0,87,0.01,,,0.01,meteohub,2013-10-13 14:22:00,
2013-10-13 10:26:00,76.6,71.8,30.05,NNE,23,0.0,0.0,85,0.01,,,0.01,meteohub,2013-10-13 14:26:00,
2013-10-13 10:31:00,76.8,72.0,30.05,NNE,23,0.0,0.0,85,0.01,,,0.01,meteohub,2013-10-13 14:31:00,
2013-10-13 10:36:00,77.2,71.6,30.05,NNE,23,0.0,0.0,83,0.01,,,0.01,meteohub,2013-10-13 14:36:00,
2013-10-13 10:42:00,77.5,72.7,30.05,NNE,23,0.0,0.0,85,0.01,,,0.01,meteohub,2013-10-13 14:42:00,
2013-10-13 10:47:00,77.7,71.4,30.05,NNE,23,0.0,0.0,81,0.01,,,0.01,meteohub,2013-10-13 14:47:00,
2013-10-13 10:52:00,78.3,72.0,30.05,NNE,23,0.0,0.0,81,0.00,,,0.01,meteohub,2013-10-13 14:52:00,
2013-10-13 10:57:00,78.6,70.0,30.05,NNE,17,0.0,3.0,75,0.00,,,0.01,meteohub,2013-10-13 14:57:00,
2013-10-13 11:02:00,79.2,68.9,30.05,NNE,19,0.0,3.0,71,0.00,,,0.01,meteohub,2013-10-13 15:02:00,
2013-10-13 11:07:00,79.3,68.4,30.05,NE,35,3.0,4.0,69,0.00,,,0.01,meteohub,2013-10-13 15:07:00,
2013-10-13 11:12:00,79.9,68.0,30.05,NNE,15,3.0,8.0,67,0.00,,,0.01,meteohub,2013-10-13 15:12:00,
2013-10-13 11:17:00,80.4,68.0,30.05,NNE,30,4.0,8.0,66,0.00,,,0.01,meteohub,2013-10-13 15:17:00,
2013-10-13 11:22:00,80.4,67.1,30.05,North,355,4.0,8.0,64,0.00,,,0.01,meteohub,2013-10-13 15:22:00,
2013-10-13 11:27:00,80.6,66.4,30.05,NNE,13,0.0,7.0,62,0.00,,,0.01,meteohub,2013-10-13 15:27:00,
2013-10-13 11:32:00,80.8,66.6,30.05,NNW,337,4.0,7.0,62,0.00,,,0.01,meteohub,2013-10-13 15:32:00,
2013-10-13 11:37:00,81.0,66.7,30.05,NNE,19,0.0,5.0,62,0.00,,,0.01,meteohub,2013-10-13 15:37:00,
2013-10-13 11:42:00,81.1,67.3,30.05,North,9,0.0,6.0,63,0.00,,,0.01,meteohub,2013-10-13 15:42:00,
2013-10-13 11:47:00,81.7,66.9,30.05,NE,46,2.0,6.0,61,0.00,,,0.01,meteohub,2013-10-13 15:47:00,
2013-10-13 11:51:00,82.4,66.6,30.05,ENE,71,5.0,6.0,59,0.00,,,0.01,meteohub,2013-10-13 15:51:00,
2013-10-13 11:56:00,82.6,67.3,30.05,NE,34,2.0,7.0,60,0.00,,,0.01,meteohub,2013-10-13 15:56:00,
2013-10-13 12:01:00,82.6,65.8,30.04,NE,36,0.0,7.0,57,0.00,,,0.01,meteohub,2013-10-13 16:01:00,
2013-10-13 12:06:00,82.6,65.8,30.04,North,0,2.0,7.0,57,0.00,,,0.01,meteohub,2013-10-13 16:06:00,
2013-10-13 12:11:00,82.2,65.5,30.04,North,0,5.0,7.0,57,0.00,,,0.01,meteohub,2013-10-13 16:11:00,
2013-10-13 12:16:00,82.6,66.4,30.04,NE,42,0.0,9.0,58,0.00,,,0.01,meteohub,2013-10-13 16:16:00,
2013-10-13 12:21:00,82.9,67.1,30.04,ENE,60,4.0,9.0,59,0.00,,,0.01,meteohub,2013-10-13 16:21:00,
2013-10-13 12:26:00,82.9,66.6,30.04,NE,48,1.0,9.0,58,0.00,,,0.01,meteohub,2013-10-13 16:26:00,
2013-10-13 12:32:00,83.1,66.4,30.04,East,100,5.0,8.0,57,0.00,,,0.01,meteohub,2013-10-13 16:32:00,
2013-10-13 12:37:00,82.9,66.6,30.04,NE,37,0.0,9.0,58,0.00,,,0.01,meteohub,2013-10-13 16:37:00,
2013-10-13 12:42:00,82.6,66.4,30.04,NE,41,7.0,9.0,58,0.00,,,0.01,meteohub,2013-10-13 16:42:00,
2013-10-13 12:47:00,82.2,65.5,30.04,NE,44,4.0,10.0,57,0.00,,,0.01,meteohub,2013-10-13 16:47:00,
2013-10-13 12:52:00,81.9,65.7,30.04,NE,50,2.0,10.0,58,0.00,,,0.01,meteohub,2013-10-13 16:52:00,
2013-10-13 12:57:00,81.7,66.0,30.03,NE,40,6.0,10.0,59,0.00,,,0.01,meteohub,2013-10-13 16:57:00,
2013-10-13 13:02:00,81.7,65.5,30.04,NNE,15,3.0,8.0,58,0.00,,,0.01,meteohub,2013-10-13 17:02:00,
2013-10-13 13:07:00,81.7,65.5,30.03,NE,40,1.0,8.0,58,0.00,,,0.01,meteohub,2013-10-13 17:07:00,
2013-10-13 13:12:00,81.7,64.4,30.03,ENE,69,2.0,7.0,56,0.00,,,0.01,meteohub,2013-10-13 17:12:00,
2013-10-13 13:17:00,81.9,65.1,30.03,NNE,24,2.0,10.0,57,0.00,,,0.01,meteohub,2013-10-13 17:17:00,
2013-10-13 13:22:00,82.0,65.3,30.02,ENE,68,2.0,10.0,57,0.00,,,0.01,meteohub,2013-10-13 17:22:00,
2013-10-13 13:27:00,82.4,66.2,30.02,North,350,7.0,10.0,58,0.00,,,0.01,meteohub,2013-10-13 17:27:00,
2013-10-13 13:32:00,82.8,64.9,30.02,NNW,346,2.0,9.0,55,0.00,,,0.01,meteohub,2013-10-13 17:32:00,
2013-10-13 13:37:00,83.1,65.8,30.02,NNE,20,0.0,9.0,56,0.00,,,0.01,meteohub,2013-10-13 17:37:00,
2013-10-13 13:42:00,83.8,65.5,30.02,ENE,68,2.0,9.0,54,0.00,,,0.01,meteohub,2013-10-13 17:42:00,
2013-10-13 13:47:00,84.2,65.7,30.01,NE,46,6.0,9.0,54,0.00,,,0.01,meteohub,2013-10-13 17:47:00,
2013-10-13 13:52:00,84.4,65.3,30.01,NE,44,5.0,9.0,53,0.00,,,0.01,meteohub,2013-10-13 17:52:00,
2013-10-13 13:57:00,84.4,65.8,30.01,ENE,58,4.0,9.0,54,0.00,,,0.01,meteohub,2013-10-13 17:57:00,
2013-10-13 14:02:00,84.7,66.2,30.01,NW,320,4.0,9.0,54,0.00,,,0.01,meteohub,2013-10-13 18:02:00,
2013-10-13 14:07:00,84.9,65.8,30.01,NNE,28,5.0,9.0,53,0.00,,,0.01,meteohub,2013-10-13 18:07:00,
2013-10-13 14:12:00,84.9,64.8,30.00,NNE,24,3.0,9.0,51,0.00,,,0.01,meteohub,2013-10-13 18:12:00,
2013-10-13 14:17:00,84.9,63.7,30.01,NNE,27,5.0,9.0,49,0.00,,,0.01,meteohub,2013-10-13 18:17:00,
2013-10-13 14:22:00,85.1,64.9,30.00,NE,36,2.0,9.0,51,0.00,,,0.01,meteohub,2013-10-13 18:22:00,
2013-10-13 14:27:00,85.3,64.0,30.00,NNE,19,3.0,10.0,49,0.00,,,0.01,meteohub,2013-10-13 18:27:00,
2013-10-13 14:32:00,84.9,63.7,30.00,NNE,15,1.0,10.0,49,0.00,,,0.01,meteohub,2013-10-13 18:32:00,
2013-10-13 14:37:00,85.3,64.0,30.00,North,0,3.0,10.0,49,0.00,,,0.01,meteohub,2013-10-13 18:37:00,
2013-10-13 14:42:00,85.5,64.8,30.00,NE,38,6.0,14.0,50,0.00,,,0.01,meteohub,2013-10-13 18:42:00,
2013-10-13 14:47:00,85.5,64.8,29.99,ESE,117,2.0,14.0,50,0.00,,,0.01,meteohub,2013-10-13 18:47:00,
2013-10-13 14:52:00,85.6,63.7,29.99,NE,53,4.0,14.0,48,0.00,,,0.01,meteohub,2013-10-13 18:52:00,
2013-10-13 14:57:00,85.3,64.6,29.99,NE,52,2.0,13.0,50,0.00,,,0.01,meteohub,2013-10-13 18:57:00,
2013-10-13 15:02:00,84.9,63.7,29.99,NE,36,2.0,13.0,49,0.00,,,0.01,meteohub,2013-10-13 19:02:00,
2013-10-13 15:07:00,85.5,64.8,29.99,NNW,346,5.0,13.0,50,0.00,,,0.01,meteohub,2013-10-13 19:07:00,
2013-10-13 15:12:00,85.3,64.6,29.99,East,96,3.0,10.0,50,0.00,,,0.01,meteohub,2013-10-13 19:12:00,
2013-10-13 15:17:00,85.3,65.1,29.99,ENE,61,1.0,10.0,51,0.00,,,0.01,meteohub,2013-10-13 19:17:00,
2013-10-13 15:22:00,85.3,65.7,29.99,NNE,31,2.0,10.0,52,0.00,,,0.01,meteohub,2013-10-13 19:22:00,
2013-10-13 15:27:00,85.1,66.0,29.99,NNE,19,3.0,10.0,53,0.00,,,0.01,meteohub,2013-10-13 19:27:00,
2013-10-13 15:32:00,85.1,66.6,29.99,NNW,328,2.0,11.0,54,0.00,,,0.01,meteohub,2013-10-13 19:32:00,
2013-10-13 15:37:00,84.9,65.8,29.99,NNE,32,0.0,11.0,53,0.00,,,0.01,meteohub,2013-10-13 19:37:00,
2013-10-13 15:42:00,85.5,66.4,29.98,ESE,102,0.0,11.0,53,0.00,,,0.01,meteohub,2013-10-13 19:42:00,
2013-10-13 15:47:00,84.9,65.8,29.98,NE,42,3.0,10.0,53,0.00,,,0.01,meteohub,2013-10-13 19:47:00,
2013-10-13 15:52:00,84.7,66.7,29.98,NE,46,3.0,9.0,55,0.00,,,0.01,meteohub,2013-10-13 19:52:00,
2013-10-13 15:56:00,84.9,67.5,29.98,North,0,0.0,9.0,56,0.00,,,0.01,meteohub,2013-10-13 19:56:00,
2013-10-13 16:01:00,85.3,67.3,29.98,North,9,3.0,9.0,55,0.00,,,0.01,meteohub,2013-10-13 20:01:00,
2013-10-13 16:06:00,85.3,66.7,29.98,NNE,31,0.0,8.0,54,0.00,,,0.01,meteohub,2013-10-13 20:06:00,
2013-10-13 16:11:00,85.3,67.3,29.98,ENE,62,4.0,10.0,55,0.00,,,0.01,meteohub,2013-10-13 20:11:00,
2013-10-13 16:16:00,84.9,66.9,29.97,East,87,3.0,10.0,55,0.00,,,0.01,meteohub,2013-10-13 20:16:00,
2013-10-13 16:21:00,84.6,66.0,29.98,NE,48,2.0,10.0,54,0.00,,,0.01,meteohub,2013-10-13 20:21:00,
2013-10-13 16:26:00,84.4,65.8,29.98,NE,34,5.0,10.0,54,0.00,,,0.01,meteohub,2013-10-13 20:26:00,
2013-10-13 16:32:00,84.2,65.7,29.97,NNE,28,2.0,9.0,54,0.00,,,0.01,meteohub,2013-10-13 20:32:00,
2013-10-13 16:37:00,84.0,66.2,29.97,NNW,348,3.0,12.0,55,0.00,,,0.01,meteohub,2013-10-13 20:37:00,
2013-10-13 16:42:00,84.0,66.2,29.97,NE,42,1.0,12.0,55,0.00,,,0.01,meteohub,2013-10-13 20:42:00,
2013-10-13 16:47:00,83.8,65.5,29.97,East,83,1.0,12.0,54,0.00,,,0.01,meteohub,2013-10-13 20:47:00,
2013-10-13 16:52:00,83.8,65.5,29.97,ENE,73,2.0,10.0,54,0.00,,,0.01,meteohub,2013-10-13 20:52:00,
2013-10-13 16:57:00,83.7,65.3,29.97,NE,55,1.0,10.0,54,0.00,,,0.01,meteohub,2013-10-13 20:57:00,
2013-10-13 17:02:00,83.7,65.3,29.97,NE,53,2.0,9.0,54,0.00,,,0.01,meteohub,2013-10-13 21:02:00,
2013-10-13 17:07:00,83.7,65.3,29.97,NE,38,0.0,8.0,54,0.00,,,0.01,meteohub,2013-10-13 21:07:00,
2013-10-13 17:12:00,83.5,65.7,29.97,ENE,57,1.0,9.0,55,0.00,,,0.01,meteohub,2013-10-13 21:12:00,
2013-10-13 17:17:00,83.1,64.8,29.97,NW,308,3.0,9.0,54,0.00,,,0.01,meteohub,2013-10-13 21:17:00,
2013-10-13 17:22:00,82.9,65.1,29.97,NNE,31,7.0,10.0,55,0.00,,,0.01,meteohub,2013-10-13 21:22:00,
2013-10-13 17:27:00,82.9,65.1,29.97,East,97,0.0,10.0,55,0.00,,,0.01,meteohub,2013-10-13 21:27:00,
2013-10-13 17:32:00,82.8,64.9,29.97,NE,42,3.0,10.0,55,0.00,,,0.01,meteohub,2013-10-13 21:32:00,
2013-10-13 17:37:00,82.6,64.8,29.97,NE,36,1.0,9.0,55,0.00,,,0.01,meteohub,2013-10-13 21:37:00,
2013-10-13 17:42:00,82.0,64.2,29.97,ENE,64,0.0,8.0,55,0.00,,,0.01,meteohub,2013-10-13 21:42:00,
2013-10-13 17:47:00,81.7,63.5,29.97,NE,38,0.0,8.0,54,0.00,,,0.01,meteohub,2013-10-13 21:47:00,
2013-10-13 17:52:00,81.1,64.0,29.97,NNE,26,0.0,10.0,56,0.00,,,0.01,meteohub,2013-10-13 21:52:00,
2013-10-13 17:57:00,81.1,64.0,29.97,NE,51,2.0,10.0,56,0.00,,,0.01,meteohub,2013-10-13 21:57:00,
2013-10-13 18:02:00,81.0,63.9,29.97,NNE,15,0.0,10.0,56,0.00,,,0.01,meteohub,2013-10-13 22:02:00,
2013-10-13 18:07:00,80.8,64.0,29.97,NE,36,0.0,6.0,57,0.00,,,0.01,meteohub,2013-10-13 22:07:00,
2013-10-13 18:12:00,80.4,64.2,29.98,NNE,14,0.0,5.0,58,0.00,,,0.01,meteohub,2013-10-13 22:12:00,
2013-10-13 18:17:00,80.4,64.2,29.98,North,5,0.0,6.0,58,0.00,,,0.01,meteohub,2013-10-13 22:17:00,
2013-10-13 18:22:00,80.1,63.9,29.98,North,9,0.0,6.0,58,0.00,,,0.01,meteohub,2013-10-13 22:22:00,
2013-10-13 18:27:00,79.9,64.2,29.98,NNE,15,0.0,7.0,59,0.00,,,0.01,meteohub,2013-10-13 22:27:00,
2013-10-13 18:32:00,79.9,64.2,29.98,NE,47,0.0,7.0,59,0.00,,,0.01,meteohub,2013-10-13 22:32:00,
2013-10-13 18:37:00,79.5,64.4,29.98,NE,51,0.0,7.0,60,0.00,,,0.01,meteohub,2013-10-13 22:37:00,
2013-10-13 18:42:00,79.3,64.8,29.99,NNE,29,0.0,5.0,61,0.00,,,0.01,meteohub,2013-10-13 22:42:00,
2013-10-13 18:47:00,79.3,64.8,29.99,NNE,24,0.0,5.0,61,0.00,,,0.01,meteohub,2013-10-13 22:47:00,
2013-10-13 18:52:00,79.2,64.6,29.99,NNE,33,0.0,4.0,61,0.00,,,0.01,meteohub,2013-10-13 22:52:00,
2013-10-13 18:57:00,79.2,64.6,29.98,NNE,30,2.0,6.0,61,0.00,,,0.01,meteohub,2013-10-13 22:57:00,
2013-10-13 19:02:00,79.0,64.8,29.99,NE,45,0.0,6.0,62,0.00,,,0.01,meteohub,2013-10-13 23:02:00,
2013-10-13 19:07:00,78.8,65.1,29.99,NE,38,0.0,6.0,63,0.00,,,0.01,meteohub,2013-10-13 23:07:00,
2013-10-13 19:12:00,78.6,65.5,29.98,NE,43,1.0,4.0,64,0.00,,,0.01,meteohub,2013-10-13 23:12:00,
2013-10-13 19:17:00,78.3,65.1,29.98,NE,34,0.0,4.0,64,0.00,,,0.01,meteohub,2013-10-13 23:17:00,
2013-10-13 19:22:00,78.3,65.1,29.99,NNE,30,0.0,5.0,64,0.00,,,0.01,meteohub,2013-10-13 23:22:00,
2013-10-13 19:27:00,78.1,65.3,29.99,NE,46,0.0,5.0,65,0.00,,,0.01,meteohub,2013-10-13 23:27:00,
2013-10-13 19:32:00,77.9,65.1,29.99,NE,40,0.0,5.0,65,0.00,,,0.01,meteohub,2013-10-13 23:32:00,
2013-10-13 19:37:00,77.9,65.7,29.99,NNE,26,0.0,5.0,66,0.00,,,0.01,meteohub,2013-10-13 23:37:00,
2013-10-13 19:42:00,77.7,65.5,29.99,NNE,28,0.0,5.0,66,0.00,,,0.01,meteohub,2013-10-13 23:42:00,
2013-10-13 19:47:00,77.7,65.5,29.99,NNE,17,0.0,5.0,66,0.00,,,0.01,meteohub,2013-10-13 23:47:00,
2013-10-13 19:52:00,77.7,65.5,29.99,ENE,57,1.0,5.0,66,0.00,,,0.01,meteohub,2013-10-13 23:52:00,
2013-10-13 19:57:00,77.9,65.7,29.99,NNE,16,0.0,4.0,66,0.00,,,0.01,meteohub,2013-10-13 23:57:00,
2013-10-13 20:02:00,77.9,65.7,29.99,NNE,16,0.0,3.0,66,0.00,,,0.01,meteohub,2013-10-14 00:02:00,
2013-10-13 20:07:00,77.9,65.7,29.99,NE,35,0.0,4.0,66,0.00,,,0.00,meteohub,2013-10-14 00:07:00,
2013-10-13 20:12:00,78.1,64.9,29.99,NE,40,0.0,5.0,64,0.00,,,0.00,meteohub,2013-10-14 00:12:00,
2013-10-13 20:17:00,77.9,65.1,29.99,NNE,22,0.0,5.0,65,0.00,,,0.00,meteohub,2013-10-14 00:17:00,
2013-10-13 20:22:00,77.7,64.9,29.99,NE,55,0.0,5.0,65,0.00,,,0.00,meteohub,2013-10-14 00:22:00,
2013-10-13 20:27:00,77.5,64.8,29.99,NNE,32,0.0,3.0,65,0.00,,,0.00,meteohub,2013-10-14 00:27:00,
2013-10-13 20:32:00,77.5,64.8,30.00,NNE,16,0.0,3.0,65,0.00,,,0.00,meteohub,2013-10-14 00:32:00,
2013-10-13 20:37:00,77.7,65.5,30.00,ENE,63,0.0,3.0,66,0.00,,,0.00,meteohub,2013-10-14 00:37:00,
2013-10-13 20:42:00,77.7,65.5,30.00,North,5,2.0,4.0,66,0.00,,,0.00,meteohub,2013-10-14 00:42:00,
2013-10-13 20:47:00,78.1,66.2,29.99,NE,40,1.0,6.0,67,0.00,,,0.00,meteohub,2013-10-14 00:47:00,
2013-10-13 20:52:00,78.1,66.2,30.00,North,9,1.0,6.0,67,0.00,,,0.00,meteohub,2013-10-14 00:52:00,
2013-10-13 20:57:00,78.1,66.2,30.00,NE,51,0.0,6.0,67,0.00,,,0.00,meteohub,2013-10-14 00:57:00,
2013-10-13 21:02:00,78.1,66.7,30.00,NE,34,0.0,4.0,68,0.00,,,0.00,meteohub,2013-10-14 01:02:00,
2013-10-13 21:07:00,77.9,66.6,30.00,NNE,31,0.0,4.0,68,0.00,,,0.00,meteohub,2013-10-14 01:07:00,
2013-10-13 21:12:00,77.9,66.6,30.00,ENE,64,0.0,3.0,68,0.00,,,0.00,meteohub,2013-10-14 01:12:00,
2013-10-13 21:17:00,77.7,66.7,30.00,ENE,64,0.0,3.0,69,0.00,,,0.00,meteohub,2013-10-14 01:17:00,
2013-10-13 21:22:00,77.7,66.7,30.01,ENE,64,0.0,2.0,69,0.00,,,0.00,meteohub,2013-10-14 01:22:00,
2013-10-13 21:27:00,77.7,66.7,30.00,North,5,0.0,2.0,69,0.00,,,0.00,meteohub,2013-10-14 01:27:00,
2013-10-13 21:33:00,77.5,66.6,30.01,NNE,13,0.0,2.0,69,0.00,,,0.00,meteohub,2013-10-14 01:33:00,
2013-10-13 21:38:00,77.4,66.7,30.01,North,5,0.0,2.0,70,0.00,,,0.00,meteohub,2013-10-14 01:38:00,
2013-10-13 21:43:00,77.4,66.7,30.01,NNE,27,0.0,3.0,70,0.00,,,0.00,meteohub,2013-10-14 01:43:00,
2013-10-13 21:48:00,77.4,66.7,30.01,NNE,13,0.0,3.0,70,0.00,,,0.00,meteohub,2013-10-14 01:48:00,
2013-10-13 21:53:00,77.4,67.3,30.01,North,11,0.0,3.0,71,0.00,,,0.00,meteohub,2013-10-14 01:53:00,
2013-10-13 21:58:00,77.2,67.1,30.01,NE,36,0.0,1.0,71,0.00,,,0.00,meteohub,2013-10-14 01:58:00,
2013-10-13 22:03:00,77.2,67.1,30.01,NE,37,1.0,1.0,71,0.00,,,0.00,meteohub,2013-10-14 02:03:00,
2013-10-13 22:08:00,77.2,67.1,30.01,East,88,0.0,1.0,71,0.00,,,0.00,meteohub,2013-10-14 02:08:00,
2013-10-13 22:13:00,77.2,67.1,30.01,ENE,76,0.0,1.0,71,0.00,,,0.00,meteohub,2013-10-14 02:13:00,
2013-10-13 22:18:00,77.2,67.1,30.01,ENE,76,0.0,1.0,71,0.00,,,0.00,meteohub,2013-10-14 02:18:00,
2013-10-13 22:23:00,77.0,67.3,30.01,ENE,78,0.0,1.0,72,0.00,,,0.00,meteohub,2013-10-14 02:23:00,
2013-10-13 22:28:00,76.8,67.1,30.01,ENE,76,0.0,2.0,72,0.00,,,0.00,meteohub,2013-10-14 02:28:00,
2013-10-13 22:33:00,76.8,66.7,30.01,NE,47,2.0,2.0,71,0.00,,,0.00,meteohub,2013-10-14 02:33:00,
2013-10-13 22:38:00,77.0,66.9,30.02,NNE,17,0.0,4.0,71,0.00,,,0.00,meteohub,2013-10-14 02:38:00,
2013-10-13 22:43:00,77.0,66.9,30.02,NE,44,0.0,4.0,71,0.00,,,0.00,meteohub,2013-10-14 02:43:00,
2013-10-13 22:48:00,76.8,66.7,30.02,ENE,72,0.0,4.0,71,0.00,,,0.00,meteohub,2013-10-14 02:48:00,
2013-10-13 22:53:00,76.6,66.6,30.02,ENE,72,0.0,3.0,71,0.00,,,0.00,meteohub,2013-10-14 02:53:00,
2013-10-13 22:58:00,76.5,67.1,30.02,ENE,72,0.0,1.0,73,0.00,,,0.00,meteohub,2013-10-14 02:58:00,
2013-10-13 23:03:00,76.1,66.7,30.02,ENE,72,0.0,1.0,73,0.00,,,0.00,meteohub,2013-10-14 03:03:00,
2013-10-13 23:08:00,75.9,66.6,30.02,NNW,331,0.0,0.0,73,0.00,,,0.00,meteohub,2013-10-14 03:08:00,
2013-10-13 23:13:00,75.7,66.4,30.02,NNW,331,0.0,2.0,73,0.00,,,0.00,meteohub,2013-10-14 03:13:00,
2013-10-13 23:18:00,75.6,66.7,30.02,NNW,329,0.0,2.0,74,0.00,,,0.00,meteohub,2013-10-14 03:18:00,
2013-10-13 23:23:00,75.4,66.9,30.02,North,0,0.0,2.0,75,0.00,,,0.00,meteohub,2013-10-14 03:23:00,
2013-10-13 23:28:00,75.4,66.9,30.02,North,0,0.0,1.0,75,0.00,,,0.00,meteohub,2013-10-14 03:28:00,
2013-10-13 23:33:00,75.0,66.6,30.02,North,0,0.0,0.0,75,0.00,,,0.00,meteohub,2013-10-14 03:33:00,
2013-10-13 23:38:00,75.0,66.6,30.02,North,0,0.0,0.0,75,0.00,,,0.00,meteohub,2013-10-14 03:38:00,
2013-10-13 23:43:00,74.8,66.7,30.02,North,0,0.0,0.0,76,0.00,,,0.00,meteohub,2013-10-14 03:43:00,
2013-10-13 23:48:00,74.8,67.1,30.02,North,0,0.0,0.0,77,0.00,,,0.00,meteohub,2013-10-14 03:48:00,
2013-10-13 23:53:00,74.7,67.6,30.02,North,0,0.0,0.0,79,0.00,,,0.00,meteohub,2013-10-14 03:53:00,
2013-10-13 23:59:00,74.5,67.8,30.02,North,0,0.0,0.0,80,0.00,,,0.00,meteohub,2013-10-14 03:59:00,